Time_in_sec,gx,gy,gz
1314889911.45932722,0.36168028,-0.17110023,-0.91646718
1314889911.50747013,0.36182999,-0.17110161,-0.91640782
1314889911.55789781,0.36160721,-0.17105655,-0.91650417
1314889911.60835242,0.36198248,-0.17109513,-0.91634881
1314889911.65533829,0.36203630,-0.17112083,-0.91632275
1314889911.70726109,0.36211006,-0.17096405,-0.91632287
1314889911.75633073,0.36221628,-0.17097434,-0.91627896
1314889911.80732918,0.36210046,-0.17101579,-0.91631701
1314889911.85520077,0.36234458,-0.17089745,-0.91624258
1314889911.90730977,0.36239516,-0.17101214,-0.91620118
1314889911.95623302,0.36244834,-0.17134942,-0.91611712
1314889912.00833082,0.36238117,-0.17126323,-0.91615981
1314889912.05632997,0.36241418,-0.17129072,-0.91614161
1314889912.10725689,0.36260602,-0.17113792,-0.91609426
1314889912.15612364,0.36245425,-0.17131832,-0.91612060
1314889912.20725060,0.36240541,-0.17126273,-0.91615031
1314889912.25924778,0.36246531,-0.17117033,-0.91614388
1314889912.30725932,0.36256587,-0.17104387,-0.91612771
1314889912.35620093,0.36259693,-0.17133220,-0.91606154
1314889912.40721154,0.36266250,-0.17125711,-0.91604963
1314889912.45605850,0.36251142,-0.17133269,-0.91609529
1314889912.50057673,0.36258120,-0.17133950,-0.91606640
1314889912.55925584,0.36229942,-0.17128715,-0.91618767
1314889912.61132216,0.36269474,-0.17140162,-0.91600983
1314889912.65606928,0.36269948,-0.17150118,-0.91598932
1314889912.70725536,0.36259052,-0.17131001,-0.91606823
1314889912.75592613,0.36254006,-0.17109451,-0.91612847
1314889912.80718946,0.36249296,-0.17112269,-0.91614184
1314889912.85588932,0.36259046,-0.17140768,-0.91604998
1314889912.90817857,0.36265268,-0.17142518,-0.91602207
1314889912.95604920,0.36260234,-0.17142226,-0.91604255
1314889913.00781298,0.36240005,-0.17164089,-0.91608166
1314889913.05624866,0.36212016,-0.17148954,-0.91622068
1314889913.10734248,0.36235238,-0.17166061,-0.91609682
1314889913.15591407,0.36238225,-0.17166001,-0.91608512
1314889913.20834398,0.36259830,-0.17163986,-0.91600340
1314889913.26024628,0.36258722,-0.17144682,-0.91604394
1314889913.30823874,0.36244530,-0.17145119,-0.91609928
1314889913.35623598,0.36259782,-0.17182760,-0.91596839
1314889913.40731335,0.36266360,-0.17185337,-0.91593752
1314889913.45582819,0.36246260,-0.17207627,-0.91597523
1314889913.50778747,0.36246655,-0.17213939,-0.91596181
1314889913.56033611,0.36254816,-0.17205837,-0.91594473
1314889913.60839653,0.36311802,-0.17232342,-0.91566912
1314889913.66032386,0.36295598,-0.17240078,-0.91571880
1314889913.70730901,0.36282142,-0.17241943,-0.91576862
1314889913.75935102,0.36282898,-0.17256704,-0.91573782
1314889913.80735469,0.36244748,-0.17256450,-0.91588936
1314889913.85634470,0.36279880,-0.17282815,-0.91570053
1314889913.90723157,0.36284497,-0.17274192,-0.91569851
1314889913.95634675,0.36290478,-0.17287885,-0.91564896
1314889914.00755906,0.36269422,-0.17301989,-0.91570575
1314889914.05634880,0.36267564,-0.17300312,-0.91571628
1314889914.10721993,0.36337930,-0.17336594,-0.91536863
1314889914.15935063,0.36342691,-0.17322007,-0.91537735
1314889914.20835042,0.36352005,-0.17341527,-0.91530340
1314889914.25563526,0.36363701,-0.17351912,-0.91523726
1314889914.30731893,0.36361310,-0.17360218,-0.91523101
1314889914.35634804,0.36439244,-0.17400881,-0.91484375
1314889914.40825868,0.36445070,-0.17378266,-0.91486353
1314889914.45623970,0.36423549,-0.17381337,-0.91494340
1314889914.49628091,0.36411715,-0.17379958,-0.91499312
1314889914.55548310,0.36390863,-0.17362819,-0.91510861
1314889914.60735488,0.36431589,-0.17362496,-0.91494716
1314889914.65633011,0.36443625,-0.17353142,-0.91491697
1314889914.70826936,0.36445824,-0.17372421,-0.91487162
1314889914.74731588,0.36451418,-0.17366661,-0.91486027
1314889914.80721712,0.36466620,-0.17374924,-0.91478400
1314889914.85633278,0.36538309,-0.17391419,-0.91446654
1314889914.90735841,0.36561831,-0.17409643,-0.91433784
1314889914.95931888,0.36559820,-0.17390827,-0.91438169
1314889915.00723863,0.36573938,-0.17381689,-0.91434260
1314889915.05623698,0.36584618,-0.17371564,-0.91431912
1314889915.11124063,0.36627118,-0.17345145,-0.91419911
1314889915.15522718,0.36610383,-0.17362708,-0.91423281
1314889915.20723438,0.36608719,-0.17363948,-0.91423712
1314889915.25623298,0.36599014,-0.17350637,-0.91430124
1314889915.30724835,0.36596402,-0.17336177,-0.91433912
1314889915.36022162,0.36617966,-0.17323851,-0.91427615
1314889915.40724540,0.36615249,-0.17323423,-0.91428784
1314889915.45926380,0.36601475,-0.17307419,-0.91437330
1314889915.50799036,0.36582171,-0.17275084,-0.91451168
1314889915.55931807,0.36563641,-0.17258410,-0.91461727
1314889915.60859609,0.36567797,-0.17262884,-0.91459221
1314889915.66175818,0.36557812,-0.17252322,-0.91465205
1314889915.70796347,0.36544864,-0.17248474,-0.91471105
1314889915.75131464,0.36542899,-0.17225903,-0.91476143
1314889915.80793500,0.36550025,-0.17222543,-0.91473929
1314889915.85625196,0.36597613,-0.17242912,-0.91451062
1314889915.90835333,0.36626004,-0.17257512,-0.91436941
1314889915.95625520,0.36622490,-0.17241554,-0.91441358
1314889916.00826931,0.36616250,-0.17246443,-0.91442935
1314889916.05593348,0.36642702,-0.17263719,-0.91429079
1314889916.10780096,0.36648436,-0.17270605,-0.91425480
1314889916.15634632,0.36653662,-0.17283738,-0.91420903
1314889916.20794988,0.36639398,-0.17272084,-0.91428823
1314889916.25581813,0.36647743,-0.17285188,-0.91423001
1314889916.30770755,0.36649337,-0.17282274,-0.91422913
1314889916.35581756,0.36660363,-0.17248286,-0.91424911
1314889916.40832639,0.36655102,-0.17249711,-0.91426752
1314889916.45580220,0.36680852,-0.17248632,-0.91416628
1314889916.49627066,0.36663860,-0.17225087,-0.91427883
1314889916.55579925,0.36672963,-0.17233036,-0.91422734
1314889916.60732079,0.36699571,-0.17229696,-0.91412685
1314889916.65634823,0.36707401,-0.17236275,-0.91408301
1314889916.70600772,0.36692693,-0.17243820,-0.91412783
1314889916.75634217,0.36695394,-0.17263845,-0.91407919
1314889916.80755043,0.36698777,-0.17271835,-0.91405052
1314889916.85925603,0.36724130,-0.17240390,-0.91400805
1314889916.90767097,0.36733324,-0.17247547,-0.91395760
1314889916.95567083,0.36737244,-0.17221349,-0.91399125
1314889917.00823021,0.36733089,-0.17218192,-0.91401390
1314889917.05565381,0.36717868,-0.17212762,-0.91408528
1314889917.10723567,0.36700293,-0.17219426,-0.91414330
1314889917.15925574,0.36706745,-0.17202734,-0.91414883
1314889917.20833325,0.36697638,-0.17204417,-0.91418223
1314889917.25552201,0.36707660,-0.17205908,-0.91413918
1314889917.30722833,0.36707388,-0.17190142,-0.91416993
1314889917.35635257,0.36716736,-0.17181401,-0.91414883
1314889917.40732312,0.36714250,-0.17185965,-0.91415023
1314889917.46034002,0.36700858,-0.17179298,-0.91421653
1314889917.49543643,0.36684775,-0.17199125,-0.91424381
1314889917.55622196,0.36687779,-0.17187856,-0.91425294
1314889917.60833263,0.36718162,-0.17190414,-0.91412615
1314889917.65550566,0.36743154,-0.17174718,-0.91405523
1314889917.70733595,0.36746737,-0.17157111,-0.91407390
1314889917.75526619,0.36747769,-0.17134758,-0.91411168
1314889917.80723834,0.36773102,-0.17145549,-0.91398956
1314889917.85531068,0.36761815,-0.17124329,-0.91407474
1314889917.90829396,0.36772949,-0.17115341,-0.91404679
1314889917.95819569,0.36771919,-0.17127714,-0.91402776
1314889918.00829387,0.36764952,-0.17114113,-0.91408126
1314889918.05527735,0.36742487,-0.17096938,-0.91420372
1314889918.10822153,0.36762374,-0.17118707,-0.91408302
1314889918.15525532,0.36781714,-0.17106720,-0.91402766
1314889918.20728183,0.36753198,-0.17099001,-0.91415680
1314889918.24820065,0.36754345,-0.17110330,-0.91413099
1314889918.30721259,0.36753838,-0.17096338,-0.91415921
1314889918.35925126,0.36763437,-0.17107039,-0.91410059
1314889918.40725803,0.36760456,-0.17087609,-0.91414892
1314889918.46025419,0.36742371,-0.17078237,-0.91423913
1314889918.49930763,0.36740184,-0.17074651,-0.91425462
1314889918.56027603,0.36738115,-0.17080303,-0.91425238
1314889918.60810423,0.36747145,-0.17101718,-0.91417606
1314889918.65626740,0.36768688,-0.17076363,-0.91413683
1314889918.70799303,0.36761373,-0.17091379,-0.91413819
1314889918.75604725,0.36754794,-0.17098193,-0.91415190
1314889918.80734229,0.36760691,-0.17141316,-0.91404742
1314889918.85624480,0.36743190,-0.17152283,-0.91409721
1314889918.90722609,0.36743288,-0.17157233,-0.91408753
1314889918.95636487,0.36720069,-0.17155264,-0.91418453
1314889919.00720310,0.36733521,-0.17155745,-0.91412958
1314889919.05628610,0.36735103,-0.17167380,-0.91410138
1314889919.10725665,0.36748094,-0.17155336,-0.91407177
1314889919.15621924,0.36741261,-0.17141797,-0.91412464
1314889919.20733190,0.36758569,-0.17181677,-0.91398018
1314889919.25925732,0.36771439,-0.17178151,-0.91393503
1314889919.30726671,0.36777976,-0.17199407,-0.91386875
1314889919.36027312,0.36761664,-0.17205833,-0.91392228
1314889919.40836334,0.36762486,-0.17206288,-0.91391812
1314889919.46006870,0.36754409,-0.17209052,-0.91394540
1314889919.50721288,0.36763480,-0.17189001,-0.91394665
1314889919.55929995,0.36775217,-0.17190193,-0.91389719
1314889919.60843110,0.36779427,-0.17169837,-0.91391851
1314889919.65624905,0.36794261,-0.17146107,-0.91390335
1314889919.70832968,0.36791148,-0.17153415,-0.91390217
1314889919.74834061,0.36762216,-0.17126358,-0.91406933
1314889919.80743170,0.36768782,-0.17124987,-0.91404549
1314889919.85626459,0.36763745,-0.17123806,-0.91406796
1314889919.90740824,0.36774787,-0.17089118,-0.91408846
1314889919.96032929,0.36807207,-0.17105473,-0.91392737
1314889920.00818753,0.36816029,-0.17115070,-0.91387386
1314889920.05933809,0.36817999,-0.17131868,-0.91383445
1314889920.10756111,0.36824775,-0.17144096,-0.91378422
1314889920.15630746,0.36825231,-0.17128144,-0.91381229
1314889920.20834374,0.36813813,-0.17137564,-0.91384064
1314889920.24730134,0.36809313,-0.17103624,-0.91392235
1314889920.30755234,0.36830459,-0.17097257,-0.91384906
1314889920.35539865,0.36843475,-0.17090990,-0.91380832
1314889920.40722704,0.36846160,-0.17078076,-0.91382164
1314889920.45627761,0.36853351,-0.17060649,-0.91382519
1314889920.49634910,0.36858060,-0.17044064,-0.91383714
1314889920.55626583,0.36854065,-0.17056449,-0.91383015
1314889920.60826492,0.36862326,-0.17062673,-0.91378521
1314889920.65625501,0.36856708,-0.17063180,-0.91380692
1314889920.70736408,0.36847877,-0.17068512,-0.91383258
1314889920.74820709,0.36852687,-0.17075425,-0.91380027
1314889920.80827570,0.36843728,-0.17085682,-0.91381722
1314889920.85630155,0.36867053,-0.17107774,-0.91368181
1314889920.90730309,0.36859628,-0.17118192,-0.91369225
1314889920.96033931,0.36862467,-0.17130122,-0.91365844
1314889920.99618053,0.36860605,-0.17109232,-0.91370509
1314889921.05635285,0.36876987,-0.17105543,-0.91364590
1314889921.10845923,0.36867506,-0.17131396,-0.91363572
1314889921.16046977,0.36857696,-0.17125833,-0.91368573
1314889921.20820642,0.36839999,-0.17099875,-0.91380571
1314889921.24731827,0.36842938,-0.17092902,-0.91380691
1314889921.30811644,0.36845693,-0.17092168,-0.91379717
1314889921.35638857,0.36855441,-0.17099641,-0.91374388
1314889921.40802932,0.36853695,-0.17075245,-0.91379654
1314889921.45636344,0.36860267,-0.17076934,-0.91376688
1314889921.49932623,0.36842351,-0.17077768,-0.91383757
1314889921.55613589,0.36848977,-0.17082843,-0.91380137
1314889921.60850692,0.36855656,-0.17099232,-0.91374377
1314889921.65931916,0.36861961,-0.17113657,-0.91369134
1314889921.70719051,0.36853787,-0.17128268,-0.91369693
1314889921.74822235,0.36864599,-0.17096320,-0.91371315
1314889921.80799627,0.36866140,-0.17097177,-0.91370533
1314889921.85599875,0.36879400,-0.17102468,-0.91364191
1314889921.90833282,0.36888534,-0.17111691,-0.91358777
1314889921.95625353,0.36874078,-0.17124383,-0.91362235
1314889921.99633288,0.36849616,-0.17139074,-0.91369349
1314889922.05634260,0.36864639,-0.17149001,-0.91361426
1314889922.10776377,0.36830966,-0.17151117,-0.91374609
1314889922.15684104,0.36814080,-0.17164169,-0.91378962
1314889922.20786119,0.36811676,-0.17145447,-0.91383446
1314889922.24831629,0.36842326,-0.17156833,-0.91368956
1314889922.30785918,0.36834767,-0.17139033,-0.91375344
1314889922.35933661,0.36819537,-0.17125465,-0.91384026
1314889922.40772438,0.36847613,-0.17120892,-0.91373566
1314889922.45633197,0.36866385,-0.17117016,-0.91366719
1314889922.49634147,0.36851154,-0.17135421,-0.91369414
1314889922.55633831,0.36842861,-0.17129197,-0.91373925
1314889922.60841513,0.36865563,-0.17140993,-0.91362556
1314889922.65571880,0.36849884,-0.17165140,-0.91364348
1314889922.70762706,0.36855168,-0.17156070,-0.91363920
1314889922.74735594,0.36867760,-0.17153247,-0.91359369
1314889922.80727935,0.36869092,-0.17150604,-0.91359328
1314889922.85934210,0.36814716,-0.17165799,-0.91378400
1314889922.90734744,0.36823886,-0.17155763,-0.91376590
1314889922.95632768,0.36817927,-0.17141830,-0.91381606
1314889923.00832582,0.36799766,-0.17132382,-0.91390693
1314889923.05558681,0.36775976,-0.17146032,-0.91397709
1314889923.10803628,0.36797472,-0.17147132,-0.91388850
1314889923.15635037,0.36800896,-0.17152466,-0.91386470
1314889923.20820355,0.36800249,-0.17147097,-0.91387738
1314889923.24735594,0.36796228,-0.17159093,-0.91387106
1314889923.30734253,0.36778829,-0.17145069,-0.91396741
1314889923.35532522,0.36785481,-0.17153527,-0.91392477
1314889923.40831709,0.36781622,-0.17146075,-0.91395429
1314889923.45628381,0.36768796,-0.17150173,-0.91399821
1314889923.49627519,0.36746207,-0.17163004,-0.91406496
1314889923.55634642,0.36745550,-0.17146026,-0.91409947
1314889923.60833859,0.36734375,-0.17149127,-0.91413856
1314889923.65627050,0.36743605,-0.17152562,-0.91409502
1314889923.70731616,0.36761137,-0.17144699,-0.91403928
1314889923.75530338,0.36751493,-0.17135876,-0.91409461
1314889923.80730534,0.36768324,-0.17159450,-0.91398269
1314889923.85530639,0.36767444,-0.17184525,-0.91393912
1314889923.90729213,0.36777720,-0.17171208,-0.91392281
1314889923.95623016,0.36763187,-0.17150190,-0.91402074
1314889923.99636316,0.36781050,-0.17124622,-0.91399681
1314889924.05593634,0.36780608,-0.17126051,-0.91399591
1314889924.10728693,0.36788589,-0.17140513,-0.91393668
1314889924.15528321,0.36789111,-0.17123535,-0.91396640
1314889924.20821023,0.36785127,-0.17133189,-0.91396435
1314889924.24727917,0.36776195,-0.17134625,-0.91399760
1314889924.30720496,0.36775121,-0.17158195,-0.91395770
1314889924.35930920,0.36728103,-0.17160491,-0.91414244
1314889924.40724158,0.36713087,-0.17146099,-0.91422976
1314889924.46025801,0.36697582,-0.17134969,-0.91431288
1314889924.49616432,0.36706182,-0.17140527,-0.91426793
1314889924.55616856,0.36705196,-0.17164710,-0.91422652
1314889924.60840511,0.36692967,-0.17160964,-0.91428264
1314889924.65931463,0.36699635,-0.17164301,-0.91424962
1314889924.70794797,0.36707104,-0.17161518,-0.91422486
1314889924.75601506,0.36714475,-0.17131827,-0.91425094
1314889924.81050158,0.36720992,-0.17133643,-0.91422136
1314889924.85601783,0.36689911,-0.17165926,-0.91428559
1314889924.90731812,0.36684130,-0.17166526,-0.91430766
1314889924.95931602,0.36685620,-0.17146247,-0.91433974
1314889925.00721860,0.36659626,-0.17117480,-0.91449788
1314889925.06034112,0.36673016,-0.17167806,-0.91434984
1314889925.10788918,0.36646196,-0.17157110,-0.91447744
1314889925.15988779,0.36640042,-0.17144826,-0.91452514
1314889925.20780349,0.36644654,-0.17148431,-0.91449990
1314889925.26034975,0.36642115,-0.17144315,-0.91451779
1314889925.30719042,0.36670168,-0.17143219,-0.91440739
1314889925.36034226,0.36648956,-0.17150188,-0.91447937
1314889925.40735221,0.36628475,-0.17151802,-0.91455839
1314889925.45575428,0.36607442,-0.17150851,-0.91464439
1314889925.50722170,0.36612447,-0.17119287,-0.91468348
1314889925.55575871,0.36630695,-0.17131989,-0.91458664
1314889925.60839319,0.36643856,-0.17150416,-0.91449937
1314889925.66035175,0.36641311,-0.17144173,-0.91452128
1314889925.70724225,0.36662335,-0.17129696,-0.91446414
1314889925.74720359,0.36653106,-0.17131947,-0.91449692
1314889925.80821466,0.36643118,-0.17155682,-0.91449245
1314889925.86034966,0.36611292,-0.17148242,-0.91463387
1314889925.90730953,0.36589672,-0.17162921,-0.91469285
1314889925.95634913,0.36585602,-0.17155962,-0.91472218
1314889926.00760794,0.36596482,-0.17168551,-0.91465504
1314889926.05633235,0.36588595,-0.17196027,-0.91463497
1314889926.10735011,0.36607380,-0.17199269,-0.91455371
1314889926.15933943,0.36604856,-0.17219481,-0.91452578
1314889926.20832253,0.36616956,-0.17209883,-0.91449540
1314889926.25539494,0.36619233,-0.17185110,-0.91453287
1314889926.30836606,0.36616913,-0.17208854,-0.91449751
1314889926.35619640,0.36627527,-0.17228425,-0.91441816
1314889926.40722466,0.36618714,-0.17225520,-0.91445893
1314889926.45634961,0.36628410,-0.17206033,-0.91445678
1314889926.49937272,0.36625351,-0.17193816,-0.91449201
1314889926.55537772,0.36640964,-0.17190333,-0.91443601
1314889926.60834575,0.36630296,-0.17205153,-0.91445088
1314889926.65932417,0.36650624,-0.17209361,-0.91436151
1314889926.70732045,0.36646874,-0.17205291,-0.91438420
1314889926.75931883,0.36631892,-0.17212657,-0.91443037
1314889926.80730987,0.36640188,-0.17240794,-0.91434412
1314889926.85931134,0.36640293,-0.17223499,-0.91437629
1314889926.90732241,0.36629064,-0.17231508,-0.91440619
1314889926.95623279,0.36606019,-0.17220554,-0.91451910
1314889927.00731874,0.36595549,-0.17196063,-0.91460708
1314889927.05925298,0.36553160,-0.17180699,-0.91480545
1314889927.10724568,0.36562163,-0.17172433,-0.91478499
1314889927.15919757,0.36556688,-0.17192918,-0.91476839
1314889927.20724988,0.36550701,-0.17183522,-0.91480997
1314889927.25925684,0.36534265,-0.17165199,-0.91491002
1314889927.30726361,0.36537226,-0.17198268,-0.91483609
1314889927.36080098,0.36523372,-0.17185985,-0.91491449
1314889927.40725279,0.36533532,-0.17190539,-0.91486537
1314889927.46103215,0.36521992,-0.17190732,-0.91491108
1314889927.50723433,0.36527622,-0.17196529,-0.91487771
1314889927.55607557,0.36584176,-0.17218222,-0.91461090
1314889927.61136508,0.36585353,-0.17214402,-0.91461338
1314889927.65622544,0.36567917,-0.17219697,-0.91467314
1314889927.70730996,0.36579460,-0.17205498,-0.91465370
1314889927.75930643,0.36574834,-0.17203801,-0.91467539
1314889927.80824614,0.36596262,-0.17203484,-0.91459028
1314889927.85925293,0.36534560,-0.17193959,-0.91485484
1314889927.90733790,0.36557751,-0.17202351,-0.91474641
1314889927.95625663,0.36544555,-0.17189713,-0.91482289
1314889928.00778699,0.36537790,-0.17197423,-0.91483543
1314889928.05633831,0.36517031,-0.17154352,-0.91499916
1314889928.10730648,0.36509512,-0.17139362,-0.91505725
1314889928.15590501,0.36496132,-0.17131210,-0.91512589
1314889928.20834970,0.36518156,-0.17113726,-0.91507074
1314889928.25933552,0.36518748,-0.17110309,-0.91507477
1314889928.30833364,0.36551289,-0.17120875,-0.91492508
1314889928.35622025,0.36550515,-0.17144549,-0.91488383
1314889928.40810370,0.36534591,-0.17133428,-0.91496827
1314889928.45934796,0.36520696,-0.17153135,-0.91498682
1314889928.50835156,0.36513880,-0.17157299,-0.91500621
1314889928.56033182,0.36513817,-0.17155018,-0.91501074
1314889928.61030459,0.36507673,-0.17165203,-0.91501615
1314889928.65621090,0.36500448,-0.17142631,-0.91508729
1314889928.70832443,0.36494465,-0.17146724,-0.91510349
1314889928.75625634,0.36492017,-0.17146516,-0.91511364
1314889928.80764866,0.36496116,-0.17151529,-0.91508789
1314889928.85634613,0.36523818,-0.17139572,-0.91499977
1314889928.90730977,0.36496713,-0.17142045,-0.91510328
1314889928.95635152,0.36493295,-0.17142077,-0.91511686
1314889929.00763345,0.36475015,-0.17145434,-0.91518344
1314889929.05563474,0.36461748,-0.17158702,-0.91521144
1314889929.10722494,0.36465026,-0.17167152,-0.91518254
1314889929.15551233,0.36469854,-0.17170132,-0.91515771
1314889929.20818472,0.36450921,-0.17154920,-0.91526166
1314889929.25919533,0.36440162,-0.17142953,-0.91532692
1314889929.30784869,0.36366846,-0.17113603,-0.91567336
